Location: Nairn
(57.5833°N, 3.8667°W)
Time: 18:30:45
(UTC+00:00)

IRAS Rocket - Pass Details

Date: 07 August 2020
Orbit: 847 x 878 km, 100.1° (Epoch: 23 September)

Event Time Altitude Azimuth Distance (km) Brightness Sun altitude
Exits shadow 01:57:01 16° 179° (S) 2,095 5.7 -13.5°
Maximum altitude 02:01:25 59° 256° (WSW) 1,003 4.4 -13.2°
Drops below altitude 10° 02:06:58 10° 335° (NNW) 2,533 7.2 -12.9°
Sets 02:09:25 0° 340° (NNW) 3,479 8.1 -12.8°
